Regional Weather Roundup
Issued by NWS Grand Forks, ND

Home | Current Version | Previous Version | Text Only | Print | Product List | Glossary Off
Versions: 1 2 3 4 5 6 7 8 9 10 11 12 13 14 15 16 17 18 19 20 21 22 23 24 25 26 27 28 29 30 31 32 33 34 35 36 37 38 39 40 41 42 43 44 45 46 47 48 49 50

000
ASUS43 KFGF 302210
RWRFGF
PRAIRIE TO PINES  WEATHER ROUNDUP
NATIONAL WEATHER SERVICE EASTERN NORTH DAKOTA/GRAND FORKS ND
400 PM CST FRI JAN 30 2015

 **SATELLITE DATA USED TO AUGMENT SKY COVER AT AUTOMATED STATIONS**
 *****  WEATHER ACROSS EASTERN NORTH DAKOTA  *****

CITY           SKY/WX    TMP DP  RH WIND       PRES   REMARKS
GRAND FORKS    MOSUNNY   35  23  61 W10       30.10F
GRAND FRKS AFB MOSUNNY   36  23  59 W10       30.11S
GRAND FRKS NWS   N/A     32 N/A N/A S15         N/A  WCI  22
DEVILS LAKE    MOSUNNY   30  23  74 NW16      30.09R WCI  19
FARGO          SUNNY     33  24  69 S15       30.13F WCI  23
WAHPETON ARPT  CLEAR     32  27  80 S13       30.14F WCI  22
$$

 ***** WEATHER ACROSS CENTRAL AND WESTERN NORTH DAKOTA  *****

CITY           SKY/WX    TMP DP  RH WIND       PRES   REMARKS
BISMARCK       SUNNY     46  26  45 NW14G22   30.13R
MINOT          CLOUDY    30  24  78 NW18      30.15S WCI  18
JAMESTOWN      SUNNY     36  25  64 W10       30.10R
MINOT AFB      CLOUDY    28  28  99 NW16      30.15R WCI  16
GARRISON         N/A     40  30  67 NW20      30.13R
WILLISTON      SUNNY     41  27  57 NW9       30.18S
DICKINSON      SUNNY     46  25  43 NW15      30.13R
HETTINGER      SUNNY     48  25  40 NW12      30.15R
$$

 *****  OTHER AIRPORT OBSERVATIONS IN OUR AREA  *****

CITY           SKY/WX    TMP DP  RH WIND       PRES   REMARKS
WALHALLA         N/A     27  25  93 NW9       30.11S WCI  17
GRAFTON AIRPOR NOT AVBL
VALLEY CITY AR FAIR      37  27  65 W12       30.10S
CANDO          FAIR      27  19  74 NW13      30.12R WCI  16
CAVALIER APRT  FAIR      27  21  80 S3        30.11S
GWINNER        CLEAR     37  30  75 SW16      30.13S
ROLLA          CLOUDY    23  23 100 NW21G30   30.11R WCI   8
 ***** THE ABOVE OBSERVATIONS ARE NON NWS ARE NOT QUALITY
       CONTROLLED AND MAY MIS-REPORT RAIN FOR SNOW...
$$

  *****  WEATHER ACROSS NORTHERN MINNESOTA  *****

CITY           SKY/WX    TMP DP  RH WIND       PRES   REMARKS
FLAG ISLAND    CLOUDY    10   7  85 S14       30.14S WCI  -5
WARROAD        CLOUDY    19  12  73 SW5       30.14R WCI  13
ROSEAU         CLOUDY    19  16  86 S7        30.13S WCI  10
HALLOCK        SUNNY     25  19  80 S9        30.12S WCI  15
THF RVR FALLS  CLOUDY    25  19  80 S12       30.12F WCI  14
BAUDETTE       CLOUDY    16   8  71 S9        30.12F WCI   4
WASKISH        CLOUDY    18   9  68 S6        30.15R WCI   9
CROOKSTON      MOSUNNY   28  21  74 S15       30.13F WCI  17
STEPHEN NDAWN    N/A     27  21  80 S10         N/A  WCI  17
GREENBUSH NDAW   N/A     21  18  86 S10         N/A  WCI  10
$$
  *****  WEATHER ACROSS CENTRAL AND WEST MINNESOTA  *****

CITY           SKY/WX    TMP DP  RH WIND       PRES   REMARKS
FOSSTON        CLOUDY    21  18  86 S14       30.14F WCI   8
BEMIDJI        CLOUDY    19  13  75 S8        30.13F WCI   9
PARK RAPIDS    CLOUDY    24  14  65 S10       30.14S WCI  14
ELBOW LAKE     FAIR      27  22  81 S17       30.16F WCI  14
WADENA         MOSUNNY   25  16  68 S13       30.16S WCI  13
DETROIT LAKES  MOSUNNY   27  21  80 S6        30.16R WCI  20
MOORHEAD       SUNNY     30  27  86 S14       30.15F WCI  20
FERGUS FALLS   MOSUNNY   27  19  74 S16       30.18F WCI  14
MORRIS MN      SUNNY     32  25  74 S16       30.16F WCI  21
STAPLES        PTSUNNY   25  12  58 S14G20    30.17F WCI  13
$$
  *****  WEATHER ELSEWHERE ACROSS MINNESOTA  *****

CITY           SKY/WX    TMP DP  RH WIND       PRES   REMARKS
DULUTH         CLOUDY    15   3  59 S10       30.23F WCI   2
INTRNTL FALLS  FLURRIES  11   5  77 SE9       30.16F WCI  -2
ELY            LGT SNOW  12   7  79 S5        30.21F WCI   4
CLOQUET        MOCLDY    16   3  57 S8        30.25F WCI   5
WHEATON        SUNNY     34  27  75 S12       30.16F
BRAINERD       CLOUDY    23  11  60 S15       30.20F WCI  10
HIBBING        CLOUDY    17   2  51 S8        30.21F WCI   7
ALEXANDRIA     PTSUNNY   24  17  74 S17G23    30.17F WCI  11
SAINT CLOUD    CLOUDY    26  15  63 S13       30.24F WCI  15
MINNEAPOLIS    MOSUNNY   27  13  55 S10       30.32F WCI  17
$$

  *****  WEATHER ACROSS SOUTH DAKOTA  *****

CITY           SKY/WX    TMP DP  RH WIND       PRES   REMARKS
SIOUX FALLS    MOSUNNY   38  28  67 S16       30.22F
BROOKINGS      NOT AVBL
WATERTOWN      SUNNY     37  28  70 SW21      30.13F
HURON          SUNNY     44  29  55 S9        30.16F
SISSETON       NOT AVBL
ABERDEEN       SUNNY     41  29  62 SW10      30.14F
MITCHELL       SUNNY     47  29  49 S12       30.17F
PIERRE         SUNNY     46  24  42 NW5       30.13S
MOBRIDGE       SUNNY     46  29  51 W5        30.10S
RAPID CITY     MOSUNNY   50  26  39 N17       30.12F
$$

  *****  SOME WEATHER IN NEARBY STATES *****

CITY           SKY/WX    TMP DP  RH WIND       PRES   REMARKS
GLASGOW MT     MOSUNNY   40  30  67 N3        30.18F
GREAT FALLS MT SUNNY     50  15  24 SW7       30.12F
CHEYENNE WY    CLOUDY    43  23  45 NE13      30.09S
SCOTTSBLUFF NE CLOUDY    43  28  55 NW6       30.10F
OMAHA NE       PTSUNNY   36  24  62 S13       30.36F
DES MOINES IA  PTSUNNY   36  12  37 SW7       30.41F
DAVENPORT IA   SUNNY     28  15  58 CALM      30.45F
CHICAGO IL     PTCLDY    28   9  44 W3        30.43F
EAU CLAIRE WI  PTCLDY    19   5  54 S7        30.36F WCI  10
LA CROSSE WI   MOSUNNY   26   8  46 S7        30.40F WCI  18
$$

  *****  SOME NATIONAL WEATHER *****

CITY           SKY/WX    TMP DP  RH WIND       PRES   REMARKS
LA GUARDIA NY  PTCLDY    34  17  50 NW23G31   29.87R WCI  22
RALEIGH NC     PTCLDY    44  12  27 NW12G22   30.15R
ATLANTA GA     MOSUNNY   49  18  29 NW20G26   30.28R
NEW ORLEANS LA PTSUNNY   57  34  41 N8        30.32F
OKLAHOMA CITY  CLOUDY    48  24  39 NE8       30.37F
ALBUQUERQUE NM LGT RAIN  37  31  78 E13       30.11F
SALT LAKE CITY LGT RAIN  43  36  76 W3        30.03F
LOS ANGELES CA CLOUDY    66  52  60 W9        29.84F
BOISE ID       SUNNY     45  33  63 NW13      30.19F
SEATTLE WA     MOSUNNY   46  40  79 CALM      30.26F HAZE
$$

*** WEATHER ACROSS MANITOBA...SASKATCHEWAN AND ONTARIO ***
                ***ONTARIO***

CITY           SKY/WX    TMP DP  RH WIND       PRES   REMARKS
GERALDTON      MOCLDY     1  -8  66 SW7       30.24F WCI -11
THUNDER BAY    MOCLDY    10   1  67 E7        30.31F WCI   0
SIOUX LOOKOUT  CLOUDY     7   0  72 S8        30.15F WCI  -6
TORONTO        PTCLDY    10   0  61 NW20      30.32R WCI  -8
BIG TROUT LK   LGT SNOW   0  -6  78 SW6       30.08F WCI -12
PICKLE LAKE    MOCLDY     1  -8  66 SW7       30.12F WCI -11
DRYDEN         FLURRIES   7   3  85 S7        30.14F WCI  -5
KENORA         FLURRIES   9   3  78 S8        30.13S WCI  -4
$$
                *** MANITOBA***

CITY           SKY/WX    TMP DP  RH WIND       PRES   REMARKS
BRANDON        PTSUNNY   19  16  86 NW15G22   30.14R WCI   5
DAUPHIN        FLURRIES  16  12  86 N7        30.22R WCI   6
ISLAND LAKE    MOCLDY     1  -4  78 W9        30.11S WCI -14
PILOT MOUND      N/A     19  18  93 NW13        N/A  WCI   7
THE PAS        PTCLDY     5  -4  66 NW10      30.29R WCI -10
THOMPSON       PTCLDY    -6 -18  54 NW15G23   30.22R WCI -27
WINNIPEG       CLOUDY    18  12  79 S6        30.14S WCI   9
LYNN LAKE      FLURRIES -13 -22  64 NW14G28   30.28R WCI -35
CHURCHILL      CRYSTALS -24 -31  69 NW31G41   30.18R BLWGSNOWWCI -59
GILLAM         CLEAR    -13 -22  64 NW10      30.15R WCI -32
$$
                ***SASKATCHEWAN***

CITY           SKY/WX    TMP DP  RH WIND       PRES   REMARKS
ESTEVAN        MOSUNNY   25  19  80 NW16G23   30.18S WCI  12
KINDERSLEY     CLOUDY    23  21  93 N5        30.23S FOG     WCI  17
LLOYDMINSTER   CLOUDY    18  14  86 NE9       30.27S WCI   6
PRINCE ALBERT  PTSUNNY   12   5  73 N10G18    30.33R WCI  -1
REGINA         CLOUDY    21  18  86 N10       30.23R WCI  10
YORKTON        CLOUDY    18  12  79 NW15      30.20R WCI   3
N. BATTLEFORD  FLURRIES  19  18  93 NW8       30.31R WCI   9
LA RONGE       PTCLDY     7  -6  56 NW13      30.38R WCI  -9
SASKATOON      FLURRIES  19  14  79 N10       30.30S WCI   8
SWIFT CURRENT  PTSUNNY   30  30 100 NW6       30.18F WCI  24
$$
NOTE: THESE ARE AUTOMATED STATIONS WITH LIMITED QUALITY CONTROL
      "FAIR" INDICATES FEW OR NO CLOUDS BELOW 12,000 FEET WITH NO
      SIGNIFICANT WEATHER AND/OR OBSTRUCTIONS TO VISIBILITY.
      SKY/WX - SKY CONDITION AND SIGNIFICANT WEATHER.
      TMP - AIR TEMPERATURE.    DP   - DEWPOINT TEMPERATURE.
      RH  - RELATIVE HUMIDITY.  PRES - PRESSURE.
      HX  - HEAT INDEX.         WCI  - WIND CHILL INDEX.
$


USA.gov is the U.S. government's official web portal to all federal, state and local government web resources and services.